Fresno, CA

1:54 PM PDT on September 29, 2016 (GMT -0700)
Fresno Yosemite International

Weather History for KFAT - June, 2014

Change the Weather History Date:

Tuesday, June 10, 2014

  Actual Average Record
Temperature  
Mean Temperature 88 °F 76 °F  
Max Temperature 103 °F 91 °F 106 °F (1986)
Min Temperature 73 °F 61 °F 46 °F (1954)
Degree Days  
Heating Degree Days 0    
Month to date heating degree days 0  
Since 1 June heating degree days 0  
Since 1 July heating degree days 1504  
Cooling Degree Days 23    
Month to date cooling degree days 183  
Year to date cooling degree days 626  
Since 1 June cooling degree days 183  
Growing Degree Days 38 (Base 50)    
Moisture  
Dew Point 51 °F    
Average Humidity 32    
Maximum Humidity 50    
Minimum Humidity 14    
Precipitation  
Precipitation 0.00 in 0.01 in 0.37 in (1976)
Month to date precipitation 0.00 0.11  
Year to date precipitation 4.08 7.74  
Since 1 July precipitation 4.81  
Snow  
Snow 0.00 in - - ()
Month to date snowfall 0.0  
Since 1 June snowfall 0.0  
Since 1 July snowfall 0.0  
Snow Depth 0.00 in    
Sea Level Pressure  
Sea Level Pressure 29.65 in    
Wind  
Wind Speed 8 mph (WNW)    
Max Wind Speed 22 mph    
Max Gust Speed 26 mph    
Visibility 10 miles    
Events      
T = Trace of Precipitation, MM = Missing Value Source: NWS Daily Summary

Daily Weather History Graph

Daily Weather History Graph

Search for Another Location

Airport or City:

Trip Planner

Search our weather history database for the weather conditions in past years. The results will help you decide how hot, cold, wet, or windy it might be!

Date:

Astronomy

Jun. 10, 2014 Rise Set
Actual Time 5:39 AM PDT 8:17 PM PDT
Civil Twilight 5:08 AM PDT 8:48 PM PDT
Nautical Twilight 4:30 AM PDT 9:26 PM PDT
Astronomical Twilight 3:48 AM PDT 10:08 PM PDT
Moon 5:51 PM PDT (6/10) 3:44 AM PDT (6/10)
Length of Visible Light 15h 39m
Length of Day
14h 38m
Waxing Gibbous, 93% of the Moon is Illuminated
Jun 10
Waxing Gibbous
Jun 12
Full
Jun 19
Last Quarter
Jun 27
New
Jul 5
First Quarter

Hourly Weather History & Observations

Time (PDT) Temp. Heat Index Dew Point Humidity Pressure Visibility Wind Dir Wind Speed Gust Speed Precip Events Conditions
12:53 AM 84.0 °F 82.6 °F 54.0 °F 35% 29.63 in 10.0 mi NW 8.1 mph - N/A   Clear
1:53 AM 82.0 °F 81.2 °F 53.1 °F 37% 29.62 in 10.0 mi NW 8.1 mph - N/A   Clear
2:53 AM 79.0 °F - 53.1 °F 40% 29.62 in 10.0 mi North 4.6 mph - N/A   Clear
3:53 AM 78.1 °F - 53.1 °F 42% 29.63 in 10.0 mi Calm Calm - N/A   Clear
4:53 AM 75.0 °F - 55.9 °F 51% 29.64 in 10.0 mi East 3.5 mph - N/A   Clear
5:53 AM 73.0 °F - 50.0 °F 44% 29.65 in 10.0 mi ESE 6.9 mph - N/A   Clear
6:53 AM 77.0 °F - 46.0 °F 33% 29.64 in 10.0 mi ESE 6.9 mph - N/A   Partly Cloudy
7:53 AM 78.8 °F - 44.6 °F 30% 29.67 in 10.0 mi SSE 8.1 mph - N/A   Clear
8:53 AM 82.9 °F - 48.0 °F 29% 29.67 in 10.0 mi South 4.6 mph - N/A   Clear
9:53 AM 88.0 °F - 46.0 °F 23% 29.66 in 10.0 mi SE 6.9 mph - N/A   Partly Cloudy
10:53 AM 90.0 °F - 48.0 °F 24% 29.66 in 10.0 mi ESE 9.2 mph - N/A   Partly Cloudy
11:53 AM 91.4 °F 89.1 °F 53.6 °F 28% 29.67 in 10.0 mi Variable 6.9 mph - N/A   Partly Cloudy
12:53 PM 96.1 °F - 51.1 °F 22% 29.65 in 10.0 mi Variable 3.5 mph - N/A   Scattered Clouds
1:53 PM 100.4 °F - 51.8 °F 20% 29.65 in 10.0 mi West 10.4 mph - N/A   Scattered Clouds
2:53 PM 100.9 °F - 46.0 °F 15% 29.63 in 10.0 mi West 6.9 mph - N/A   Partly Cloudy
3:53 PM 102.0 °F - 44.1 °F 14% 29.62 in 10.0 mi West 6.9 mph - N/A   Partly Cloudy
4:53 PM 102.0 °F - 51.1 °F 18% 29.60 in 10.0 mi WNW 10.4 mph - N/A   Partly Cloudy
5:53 PM 102.0 °F - 48.0 °F 16% 29.60 in 10.0 mi WNW 12.7 mph - N/A   Partly Cloudy
6:53 PM 100.0 °F - 50.0 °F 18% 29.61 in 10.0 mi WNW 12.7 mph - N/A   Scattered Clouds
7:53 PM 95.0 °F 92.7 °F 53.6 °F 25% 29.65 in 10.0 mi WNW 12.7 mph - N/A   Scattered Clouds
8:53 PM 91.0 °F 88.9 °F 55.0 °F 29% 29.67 in 10.0 mi WNW 12.7 mph - N/A   Scattered Clouds
9:53 PM 84.9 °F 83.2 °F 53.1 °F 33% 29.70 in 10.0 mi NW 13.8 mph - N/A   Scattered Clouds
10:53 PM 81.0 °F 80.5 °F 54.0 °F 39% 29.68 in 10.0 mi NW 12.7 mph - N/A   Clear
11:53 PM 79.0 °F - 52.0 °F 39% 29.69 in 10.0 mi North 8.1 mph - N/A   Clear